Regional Weather Roundup
Issued by NWS Northern Indiana

Home | Current Version | Previous Version | Graphics & Text | Print | Product List | Glossary On
Versions: 1 2 3 4 5 6 7 8 9 10 11 12 13 14 15 16 17 18 19 20 21 22 23 24 25 26 27 28 29 30 31 32 33 34 35 36 37 38 39 40 41 42 43 44 45 46 47 48 49 50
000
ASUS43 KIWX 261300
RWRIWX

KIWX WEATHER ROUNDUP
NATIONAL WEATHER SERVICE NORTHERN INDIANA
900 AM EDT SUN MAR 26 2017

NOTE: "FAIR" INDICATES FEW OR NO CLOUDS BELOW 12,000 FEET WITH NO
SIGNIFICANT WEATHER AND/OR OBSTRUCTIONS TO VISIBILITY.

* THESE STATIONS ARE NOT UNDER NWS QUALITY CONTROL. THEY ALSO MAY NOT
  REPORT WEATHER SUCH AS PRECIPITATION OR FOG.

INZ001>027-261400-
NORTHERN INDIANA

CITY           SKY/WX    TMP DP  RH WIND       PRES   REMARKS
GARY*          LGT RAIN  52  52 100 SE10      29.87S
KNOX*          CLOUDY    50  45  81 SE10      29.90S
SOUTH BEND     LGT RAIN  46  32  58 E10       29.92S
ELKHART*       RAIN      46  45  93 E6        29.92F
GOSHEN         LGT RAIN  47  43  86 E9        29.93S FOG
MONTICELLO*    RAIN      55  53  95 S6        29.89S
ANGOLA*        CLOUDY    41  41 100 E8        29.97S
FORT WAYNE     LGT RAIN  43  41  93 E8        29.97S FOG
PERU/GRISSOM   LGT RAIN  56  56 100 S10       29.90R

$$
INZ028>050-261400-
CENTRAL INDIANA

CITY           SKY/WX    TMP DP  RH WIND       PRES   REMARKS
LAFAYETTE      CLOUDY    56  56 100 S7        29.89R
KOKOMO*        RAIN      56  55  97 S13       29.93R
MUNCIE*        LGT RAIN  58  55  90 S5        29.94R
INDIANAPOLIS   RAIN      56  55  97 SW7       29.92R FOG

$$
MIZ043>046-050>051-056>058-064>065-071>073-077>080-261400-
SOUTHWEST LOWER MICHIGAN

CITY           SKY/WX    TMP DP  RH WIND       PRES   REMARKS
BATTLE CREEK   CLOUDY    42  41  96 E8        29.97S
BENTON HARBOR  LGT RAIN  48  46  93 E9        29.91S FOG
COLDWATER*     CLOUDY    43  42  98 E8        29.97S FOG
HILLSDALE*     CLOUDY    39  37  93 E7        29.98S FOG
HOLLAND        LGT RAIN  43  41  93 E10       29.95F FOG
GRAND RAPIDS   LGT RAIN  39  37  92 E13       29.97F FOG
KALAMAZOO      LGT RAIN  44  41  89 SE6       29.97R FOG
STURGIS*       RAIN      44  43  98 E7        29.95S
THREE RIVERS*  DRIZZLE   44  43  97 E6        29.96S

$$
OHZ001>008-015>018-024>025-261400-
NORTHWEST OHIO

CITY           SKY/WX    TMP DP  RH WIND       PRES   REMARKS
DEFIANCE       CLOUDY    40  37  89 E7        29.99F
FINDLAY        CLOUDY    43  37  79 NE5       29.98S
TOLEDO EXPRESS CLOUDY    39  37  92 E8        30.01S
TOLEDO METCALF CLOUDY    39  38  96 NE9       30.02S FOG
LIMA           LGT RAIN  46  43  89 SE5       29.99R

$$
AND FOR LAKE MICHIGAN COASTAL AND OPEN LAKE BUOY OBSERVATIONS

STATION/POSITION TEMP    WIND        PRES    VSBY  WAVE
                 AIR SEA DIR/SP/G                  HT/PER
                 (F)     (DEG/KT/KT) (MB)    (MI)  (FT/S)
CALUMET HARBOR    48     110/  9/ 15 1010.8F
MICHIGAN CITY     50     130/  9/ 10   N/A
BURNS HARBOR      52     140/ 10/ 15 1012.2S

$$
&&




USA.gov is the U.S. government's official web portal to all federal, state and local government web resources and services.